Stations météo

Publicité
Bordeaux/Merignac, France (7510): Température de l'air & dewpoint: 29.03.2020 00:00:00 - 04.04.2020 00:00:00 (CEST)Bordeaux/Merignac, France (7510): Température de l'air 5cm: 29.03.2020 00:00:00 - 04.04.2020 00:00:00 (CEST)Bordeaux/Merignac, France (7510): Température de l'air -20cm & Température de l'air -100cm: 29.03.2020 00:00:00 - 04.04.2020 00:00:00 (CEST)Bordeaux/Merignac, France (7510): Vitesse du vent & gusts: 29.03.2020 00:00:00 - 04.04.2020 00:00:00 (CEST)Bordeaux/Merignac, France (7510): Direction du vent: 29.03.2020 00:00:00 - 04.04.2020 00:00:00 (CEST)Bordeaux/Merignac, France (7510): reduced air pressure: 29.03.2020 00:00:00 - 04.04.2020 00:00:00 (CEST)Bordeaux/Merignac, France (7510): visibility: 29.03.2020 00:00:00 - 04.04.2020 00:00:00 (CEST)Bordeaux/Merignac, France (7510): Ensoleillement: 29.03.2020 00:00:00 - 04.04.2020 00:00:00 (CEST)Bordeaux/Merignac, France (7510): Quantités de précipitations: 29.03.2020 00:00:00 - 04.04.2020 00:00:00 (CEST)
Date & Time tt [°C] td [°C] tt 5cm [°C] tt -20cm [°C] tt -100cm [°C] ff [km/h] ff [knt] fx [km/h] fx [knt] dd ppp [hPa] vv [km] sd [min] rr [mm]
04.04.2020 00:00:00 9,5 5,5 6,4 13,0 12,2 7 4 11 6 NE 1019,2 32 0 0,0
03.04.2020 23:00:00 9,8 6,1 7,4 13,2 12,2 9 5 16 8 NNE 1019,3 34 0 0,0
03.04.2020 22:00:00 10,8 6,0 8,4 13,4 12,2 11 6 17 9 N 1019,4 19 0 0,0
03.04.2020 21:00:00 12,2 5,8 10,4 13,5 12,2 13 7 22 12 N 1019,1 58 2 0,0
03.04.2020 20:00:00 14,2 4,5 15,0 13,5 12,2 14 7 28 15 N 1018,7 48 58 0,0
03.04.2020 19:00:00 15,4 3,2 14,5 13,5 12,2 15 8 28 15 NNE 1018,6 55 51 0,0
03.04.2020 18:00:00 15,4 2,9 19,6 13,3 12,2 14 7 30 16 NNE 1018,6 35 60 0,0
03.04.2020 17:00:00 15,6 3,1 19,6 12,9 12,2 15 8 31 17 N 1018,8 32 60 0,0
03.04.2020 16:00:00 15,1 2,3 20,9 12,6 12,2 14 8 28 15 NE 1019,4 28 60 0,0
03.04.2020 15:00:00 14,4 2,0 20,0 12,1 12,2 20 11 36 19 NE 1019,9 34 60 0,0
03.04.2020 14:00:00 13,7 2,3 18,6 11,7 12,2 11 6 31 17 NE 1020,4 43 60 0,0
03.04.2020 13:00:00 12,5 1,8 16,9 11,4 12,2 15 8 34 18 ENE 1020,9 28 60 0,0
03.04.2020 12:00:00 11,5 1,4 15,2 11,1 12,2 14 8 24 13 ENE 1021,4 32 60 0,0
03.04.2020 11:00:00 10,3 1,4 13,4 11,0 12,1 9 5 18 10 NNE 1021,4 19 60 0,0
03.04.2020 10:00:00 8,6 1,9 8,5 11,1 12,1 11 6 15 8 NNE 1020,7 15 60 0,0
03.04.2020 09:00:00 5,5 1,8 0,3 11,2 12,1 6 3 9 5 N 1020,6 12 58 0,0
03.04.2020 08:00:00 2,5 0,1 -0,9 11,4 12,1 3 1 9 5 NW 1020,0 9 0 0,0
03.04.2020 07:00:00 3,2 -0,1 -1,3 11,6 12,1 4 2 11 6 NNW 1019,5 15 0 0,0
03.04.2020 06:00:00 3,1 0,2 -1,0 11,8 12,1 4 2 6 4 NNW 1019,1 7 0 0,0
03.04.2020 05:00:00 3,7 0,2 -0,6 12,0 12,1 5 3 7 4 NNW 1019,0 13 0 0,0
03.04.2020 04:00:00 5,0 0,4 2,0 12,2 12,1 4 2 6 3 NNW 1019,1 9 0 0,0
03.04.2020 03:00:00 6,0 0,5 2,9 12,4 12,1 7 4 14 7 N 1019,0 12 0 0,0
03.04.2020 02:00:00 6,8 1,1 4,9 12,6 12,1 10 6 18 10 N 1018,8 15 0 0,0
03.04.2020 01:00:00 7,5 2,4 5,1 12,7 12,0 11 6 15 8 NNW 1018,4 12 0 0,0
03.04.2020 00:00:00 8,5 2,5 7,0 12,9 12,0 10 5 15 8 NNW 1018,1 14 0 0,0
02.04.2020 23:00:00 9,5 2,3 8,2 13,2 12,0 11 6 20 11 NNW 1017,6 16 0 0,0
02.04.2020 22:00:00 10,9 1,7 9,3 13,3 12,0 13 7 23 13 N 1016,9 19 0 0,0
02.04.2020 21:00:00 12,7 -0,6 10,8 13,5 12,0 15 8 27 15 N 1016,0 24 2 0,0
02.04.2020 20:00:00 14,6 -1,1 14,8 13,5 12,0 19 10 29 16 N 1015,3 31 51 0,0
02.04.2020 19:00:00 15,4 3,2 15,6 13,5 12,0 20 11 29 16 N 1014,8 41 10 0,0
02.04.2020 18:00:00 16,3 5,8 18,3 13,3 12,0 17 9 24 13 N 1014,4 35 43 0,0
02.04.2020 17:00:00 16,8 5,4 17,5 13,1 12,0 9 5 21 11 N 1014,2 39 27 0,0
02.04.2020 16:00:00 16,5 4,2 17,9 12,7 12,0 6 3 14 8 N 1014,5 19 37 0,0
02.04.2020 15:00:00 17,1 5,4 17,4 12,3 12,0 4 2 13 7 N 1014,8 41 55 0,0
02.04.2020 14:00:00 15,2 5,1 17,5 11,8 12,0 7 4 18 10 E 1015,3 37 47 0,0
02.04.2020 13:00:00 14,7 5,5 15,1 11,5 12,0 8 4 14 7 ESE 1015,6 20 39 0,0
02.04.2020 12:00:00 13,9 5,8 17,7 11,2 12,0 4 2 11 6 ESE 1015,9 32 60 0,0
02.04.2020 11:00:00 12,4 5,3 15,0 11,1 12,0 5 3 13 7 ENE 1015,9 20 60 0,0
02.04.2020 10:00:00 10,6 5,8 11,7 11,1 12,0 8 4 11 6 NE 1015,5 20 60 0,0
02.04.2020 09:00:00 8,0 6,3 0,7 11,2 11,9 2 1 5 3 NNE 1015,2 14 36 0,0
02.04.2020 08:00:00 4,6 3,7 -0,1 11,4 11,9 2 1 3 2 ESE 1014,8 1,1 0 0,0
02.04.2020 07:00:00 5,3 3,6 0,8 11,5 11,9 0 0 5 3 N 1014,4 14 0 0,0
02.04.2020 06:00:00 6,8 4,5 1,9 11,7 11,9 3 2 11 6 NW 1014,3 28 0 0,0
02.04.2020 05:00:00 7,5 4,4 4,4 11,8 11,9 9 5 13 7 S 1014,2 40 0 0,0
02.04.2020 04:00:00 8,9 4,9 6,9 12,0 11,9 8 5 16 9 SSE 1014,5 43 0 0,0
02.04.2020 03:00:00 10,1 5,7 7,6 12,1 11,9 12 7 21 11 SSE 1014,7 45 0 0,0
02.04.2020 02:00:00 10,3 6,4 6,2 12,2 11,9 9 5 14 8 SSE 1014,7 37 0 0,0
02.04.2020 01:00:00 12,0 6,3 7,1 12,4 11,9 7 4 11 6 S 1014,7 44 0 0,0
02.04.2020 00:00:00 13,8 4,9 11,9 12,4 11,9 9 5 19 10 ENE 1014,9 55 0 0,0
01.04.2020 23:00:00 14,3 6,9 10,3 12,5 11,9 9 5 15 8 NNE 1014,4 45 0 0,0
01.04.2020 22:00:00 12,8 7,7 8,2 12,6 11,9 2 1 16 9 NW 1014,2 33 0 0,0
01.04.2020 21:00:00 14,6 7,6 11,3 12,7 11,9 3 2 6 4 WNW 1013,5 40 0 0,0
01.04.2020 20:00:00 16,3 6,7 15,3 12,7 11,9 6 3 14 7 SSE 1013,2 50 39 0,0
01.04.2020 19:00:00 17,5 7,0 17,7 12,6 11,9 10 6 21 11 SE 1013,2 54 45 0,0
01.04.2020 18:00:00 17,3 6,8 19,0 12,4 11,9 13 7 29 16 E 1013,3 49 42 0,0
01.04.2020 17:00:00 17,2 7,3 18,2 12,2 11,9 14 8 26 14 E 1013,7 45 15 0,0
01.04.2020 16:00:00 16,4 6,5 18,1 11,8 11,9 14 7 31 17 ESE 1014,2 52 13 0,0
01.04.2020 15:00:00 16,8 7,7 18,8 11,5 11,9 18 10 31 17 ESE 1014,5 39 35 0,0
01.04.2020 14:00:00 16,5 7,4 17,3 11,0 11,9 18 10 30 16 SE 1014,9 24 50 0,0
01.04.2020 13:00:00 16,0 7,2 18,5 10,7 11,9 23 12 36 20 ESE 1015,4 20 60 0,0
01.04.2020 12:00:00 15,4 7,7 17,9 10,4 11,9 24 13 41 22 ESE 1015,4 41 60 0,0
01.04.2020 11:00:00 13,9 7,0 14,6 10,3 11,9 20 11 33 18 E 1015,8 47 60 0,0
01.04.2020 10:00:00 11,8 5,2 11,8 10,3 12,0 16 9 28 15 E 1015,6 36 60 0,0
01.04.2020 09:00:00 10,0 4,1 8,5 10,3 11,9 13 7 21 11 ENE 1015,6 24 54 0,0
01.04.2020 08:00:00 9,0 3,8 6,6 10,3 11,9 13 7 19 11 ENE 1015,5 38 0 0,0
01.04.2020 07:00:00 7,0 2,1 5,4 10,4 12,0 8 4 16 9 ENE 1015,6 38 0 0,0
01.04.2020 06:00:00 6,5 1,4 3,8 10,5 11,9 12 7 15 8 NE 1015,5 35 0 0,0
01.04.2020 05:00:00 6,7 0,8 4,9 10,6 12,0 9 5 16 9 ENE 1015,5 30 0 0,0
01.04.2020 04:00:00 6,8 -0,2 3,2 10,7 12,0 10 5 12 7 NNE 1015,6 60 0 0,0
01.04.2020 03:00:00 7,1 -0,9 4,6 10,8 12,0 6 4 13 7 ENE 1015,8 58 0 0,0
01.04.2020 02:00:00 8,3 -2,1 6,4 11,0 12,0 10 5 17 9 NE 1015,7 60 0 0,0
01.04.2020 01:00:00 9,1 -2,2 7,1 11,1 11,9 12 6 17 9 NE 1015,8 60 0 0,0
01.04.2020 00:00:00 9,8 -2,2 7,8 11,3 12,0 11 6 22 12 NE 1016,0 60 0 0,0
31.03.2020 23:00:00 10,9 -1,5 9,2 11,4 12,0 14 8 20 11 NE 1015,8 60 0 0,0
31.03.2020 22:00:00 11,8 -0,1 9,5 11,5 12,0 10 5 20 11 NNE 1015,6 60 0 0,0
31.03.2020 21:00:00 13,2 2,1 10,5 11,6 12,0 14 7 19 11 NNE 1015,4 59 2 0,0
31.03.2020 20:00:00 15,0 2,8 14,2 11,5 12,0 12 6 27 15 ENE 1015,0 57 60 0,0
31.03.2020 19:00:00 15,5 3,3 17,5 11,4 12,1 15 8 29 15 ENE 1014,8 44 60 0,0
31.03.2020 18:00:00 15,2 2,7 18,3 11,2 12,1 14 8 34 19 ENE 1015,0 38 60 0,0
31.03.2020 17:00:00 14,7 2,6 18,3 10,9 12,1 21 11 38 20 NE 1015,0 28 60 0,0
31.03.2020 16:00:00 13,7 2,3 17,2 10,6 12,2 21 12 39 21 ENE 1015,5 20 60 0,0
31.03.2020 15:00:00 13,0 1,9 15,6 10,2 12,2 21 11 34 18 NE 1016,0 36 60 0,0
31.03.2020 14:00:00 11,4 2,1 14,8 9,8 12,2 22 12 32 18 NE 1016,6 39 60 0,0
31.03.2020 13:00:00 10,5 2,3 12,8 9,5 12,2 16 8 29 16 ENE 1017,1 45 60 0,0
31.03.2020 12:00:00 8,7 1,1 10,8 9,2 12,2 17 9 26 14 NE 1017,7 20 60 0,0
31.03.2020 11:00:00 7,5 1,3 8,1 9,1 12,2 16 9 26 14 ENE 1018,1 20 60 0,0
31.03.2020 10:00:00 5,2 0,8 5,5 9,1 12,2 16 9 22 12 NE 1018,1 27 36 0,0
31.03.2020 09:00:00 4,0 1,4 2,1 9,1 12,3 9 5 15 8 NNE 1018,1 15 22 0,0
31.03.2020 08:00:00 2,8 1,9 1,9 9,2 12,3 9 5 13 7 NE 1017,7 9 0 0,0
31.03.2020 07:00:00 2,6 2,3 -0,2 9,3 12,3 6 3 8 4 NNE 1017,3 1,8 0 0,0
31.03.2020 06:00:00 1,9 1,8 0,2 9,4 12,3 0 0 4 2 N 1017,5 0,7 0 0,0
31.03.2020 05:00:00 1,5 1,4 -1,3 9,5 12,3 2 1 3 2 WNW 1017,7 3,5 0 0,0
31.03.2020 04:00:00 1,2 0,9 -2,7 9,6 12,3 2 1 6 3 N 1018,0 0,3 0 0,0
31.03.2020 03:00:00 1,1 0,8 -2,8 9,7 12,3 0 0 4 2 N 1018,3 0,3 0 0,0
31.03.2020 02:00:00 0,9 0,6 -3,1 9,8 12,3 3 2 8 4 ENE 1018,7 0,2 0 0,0
31.03.2020 01:00:00 1,2 0,8 -2,6 9,9 12,4 7 4 8 4 NNE 1018,8 0,4 0 0,0
31.03.2020 00:00:00 1,7 1,1 -1,8 10,1 12,4 0 0 9 5 N 1019,1 0,3 0 0,0
30.03.2020 23:00:00 2,7 2,0 -0,5 10,1 12,4 5 3 8 4 NE 1019,2 4,8 0 0,0
30.03.2020 22:00:00 4,0 2,8 3,1 10,2 12,4 5 3 18 10 NE 1019,5 13 0 0,0
30.03.2020 21:00:00 4,4 2,7 4,0 10,2 12,4 10 5 19 10 ENE 1019,1 16 0 0,0
30.03.2020 20:00:00 4,3 2,5 3,9 10,3 12,4 16 8 23 13 NE 1018,8 17 0 0,0
30.03.2020 19:00:00 4,1 2,4 3,7 10,3 12,4 18 10 29 16 NE 1018,6 19 0 0,0
30.03.2020 18:00:00 3,8 2,3 3,4 10,3 12,5 22 12 34 19 NE 1018,8 17 0 0,2
30.03.2020 17:00:00 3,7 1,9 3,4 10,4 12,5 26 14 40 21 NE 1019,0 23 0 0,4
30.03.2020 16:00:00 3,5 2,5 3,3 10,4 12,5 19 11 33 18 NNE 1019,3 8 0 0,6
30.03.2020 15:00:00 3,1 2,1 2,9 10,4 12,5 21 11 31 17 NNE 1019,8 8 0 0,6
30.03.2020 14:00:00 2,4 1,7 2,8 10,4 12,5 21 12 34 18 NNE 1020,3 11 0 0,5
30.03.2020 13:00:00 2,0 1,3 2,1 10,5 12,5 23 13 41 22 N 1020,5 4,6 0 0,6
30.03.2020 12:00:00 1,7 1,0 2,1 10,5 12,5 27 15 46 25 N 1021,1 3,8 0 0,6
30.03.2020 11:00:00 1,8 0,8 2,2 10,6 12,5 24 13 47 25 N 1021,5 5 0 0,6
30.03.2020 10:00:00 2,3 1,3 1,9 10,7 12,5 24 13 39 21 N 1021,3 8 0 1,0
30.03.2020 09:00:00 2,9 1,3 0,1 10,8 12,5 24 13 38 20 NNE 1021,3 9 0 0,8
30.03.2020 08:00:00 1,0 0,1 0,1 10,9 12,5 8 4 19 11 N 1021,5 1,3 0 1,6
30.03.2020 07:00:00 1,6 0,6 0,9 11,0 12,5 16 9 43 23 N 1021,7 4,2 0 0,6
30.03.2020 06:00:00 3,7 -0,5 1,9 11,1 12,5 24 13 51 27 N 1021,9 33 0 0,0
30.03.2020 05:00:00 4,3 -1,3 3,8 11,2 12,5 27 15 47 25 N 1022,4 39 0 0,0
30.03.2020 04:00:00 5,0 -2,8 4,6 11,3 12,5 27 14 44 24 N 1022,7 60 0 0,0
30.03.2020 03:00:00 5,5 -3,6 4,9 11,4 12,5 28 15 51 28 N 1023,1 57 0 0,0
30.03.2020 02:00:00 5,8 -4,4 5,2 11,6 12,5 27 15 43 23 NNE 1023,4 60 0 0,0
30.03.2020 01:00:00 6,0 -4,8 4,6 11,7 12,5 24 13 35 19 N 1023,4 60 0 0,0
30.03.2020 00:00:00 5,9 -3,7 4,8 11,8 12,5 21 11 40 22 N 1023,2 54 0 0,0
29.03.2020 23:00:00 7,0 -3,6 6,1 12,0 12,6 26 14 36 19 NNE 1023,3 58 0 0,0
29.03.2020 22:00:00 7,8 -3,1 7,2 12,1 12,6 23 13 41 22 NNE 1023,3 57 0 0,0
29.03.2020 21:00:00 7,7 -1,5 6,8 12,2 12,6 21 11 45 24 NNE 1023,2 50 0 0,0
29.03.2020 20:00:00 7,4 -0,3 6,8 12,3 12,5 28 15 55 30 NE 1023,0 31 0 0,0
29.03.2020 19:00:00 7,8 -0,9 7,9 12,4 12,6 26 14 48 26 NE 1022,7 49 0 0,0
29.03.2020 18:00:00 7,7 -1,3 7,9 12,5 12,6 36 20 51 28 NNE 1022,6 47 0 0,0
29.03.2020 17:00:00 8,2 0,2 8,8 12,3 12,6 35 19 48 26 NNE 1022,4 36 0 0,0
29.03.2020 16:00:00 10,1 1,7 12,9 12,2 12,6 29 16 46 25 NNE 1022,1 27 30 0,0
29.03.2020 15:00:00 10,6 3,1 12,7 12,0 12,6 29 16 47 26 NNE 1022,1 15 4 0,0
29.03.2020 14:00:00 10,2 3,5 12,4 11,9 12,6 29 16 42 23 NNE 1022,4 16 0 0,0
29.03.2020 13:00:00 10,6 3,8 12,6 11,7 12,6 29 16 41 22 NNE 1022,5 14 16 0,0
29.03.2020 12:00:00 10,4 4,1 11,3 11,6 12,6 31 17 41 22 NNE 1022,4 14 44 0,0
29.03.2020 11:00:00 9,3 4,3 11,0 11,6 12,6 27 15 38 20 NNE 1022,2 16 37 0,0
29.03.2020 10:00:00 8,8 4,4 7,6 11,6 12,6 19 10 29 16 NNE 1021,6 8 60 0,0
29.03.2020 09:00:00 7,2 4,8 4,4 11,7 12,5 11 6 17 9 N 1021,4 3,4 17 0,0
29.03.2020 08:00:00 6,2 4,7 3,8 11,8 12,5 10 5 14 8 N 1020,8 2,4 0 0,0
29.03.2020 07:00:00 5,8 5,1 0,5 12,0 12,6 5 3 7 4 NNW 1020,5 1,1 0 0,0
29.03.2020 06:00:00 4,6 3,6 0,4 12,1 12,6 4 2 6 3 WNW 1020,4 0,6 0 0,0
29.03.2020 05:00:00 5,7 5,0 1,2 12,3 12,5 4 2 5 3 W 1020,4 0,1 0 0,0
29.03.2020 04:00:00 5,8 4,6 1,6 12,5 12,5 4 2 6 3 W 1020,6 0,2 0 0,0
29.03.2020 03:00:00 6,8 5,6 1,7 12,6 12,5 3 2 5 3 WNW 1020,8 0,2 0 0,0
29.03.2020 02:00:00 7,7 5,8 4,6 12,8 12,5 4 2 6 4 NW 1021,1 0,6 0 0,0
29.03.2020 01:00:00 8,8 5,5 5,8 13,0 12,5 5 3 11 6 WSW 1021,1 3,4 0 0,0
29.03.2020 00:00:00 - - - - - - - - - - - - - -

tt = Température de l'air
td = dewpoint
tt 5cm = Température de l'air 5cm
tt -20cm = Température de l'air -20cm
tt -100cm = Température de l'air -100cm
ff = Vitesse du vent
fx = gusts
dd = Direction du vent
ppp = reduced air pressure
vv = visibility
sd = Ensoleillement
rr = Quantités de précipitations

stations d'obs. à proximité